User: anonymous   Login
Location: Unspecified
(0.0000°N, 0.0000°E)
Time: 18:45:52
(UTC+00:00)
Language:

ISS - Orbit

View from above orbital plane
View from above orbital plane
View from above satellite
View from above satellite

Ground track
Ground track

The orbit data is extracted from the following two-line orbital elements,

1 25544U 98067A   17202.75917593  .00016717  00000-0  10270-3 0  9038
2 25544  51.6380 225.9978 0006109  54.6610 305.5113 15.54196332 27124
Epoch (UTC): 21 July 2017 18:13:12
Eccentricity: 0.0006109
inclination: 51.6380°
perigee height: 400 km
apogee height: 408 km
right ascension of ascending node: 225.9978°
argument of perigee: 54.6610°
revolutions per day: 15.54196332
mean anomaly at epoch: 305.5113°
orbit number at epoch: 2712

The dashed part of the orbit path shows where the satellite is in the earth's shadow,  

DLR